DL4FEU Weather Reports


time (UTC)temp
C
wind
direction
speed
KPH
gust
KPH
rain 1hr
cm
rain 24hr
cm
rain mn
cm
humidity
%
barometer
mb
20260506113005 17 227 11.3 0.0 0.00 0.00 0.71 67 1009.1
20260506111622 17 236 11.3 0.0 0.00 0.00 0.71 68 1009.2
20260506110057 16 210 11.3 0.0 0.00 0.00 0.71 69 1009.4
20260506104603 16 211 9.7 0.0 0.00 0.00 0.71 72 1009.5
20260506103059 16 232 12.9 0.0 0.00 0.00 0.71 72 1009.4
20260506101551 15 220 4.8 0.0 0.00 0.00 0.71 76 1009.7
20260506100049 15 214 6.4 0.0 0.00 0.00 0.71 77 1009.6
20260506094547 15 207 8.0 0.0 0.00 0.00 0.71 77 1009.6
20260506093052 15 225 8.0 0.0 0.00 0.00 0.71 78 1009.6
20260506091546 15 225 8.0 0.0 0.00 0.00 0.71 78 1009.5
20260506090044 15 227 8.0 0.0 0.00 0.00 0.71 78 1009.4
20260506084544 15 229 8.0 0.0 0.00 0.00 0.71 77 1009.3
20260506083059 15 199 14.5 0.0 0.00 0.00 0.71 77 1009.3
20260506081547 15 215 8.0 0.0 0.00 0.00 0.71 83 1009.1
20260506073035 13 207 8.0 0.0 0.00 0.00 0.71 90 1009.3
20260506071534 13 207 4.8 0.0 0.00 0.00 0.71 91 1009.3
20260506061536 12 217 6.4 0.0 0.00 0.00 0.71 93 1009.2
20260506044519 12 238 0.0 0.0 0.00 0.00 0.71 93 1009.2
20260506043015 11 238 0.0 0.0 0.00 0.00 0.71 93 1009.3
20260506041513 11 218 0.0 0.0 0.00 0.00 0.71 93 1009.3
20260506040011 11 217 0.0 0.0 0.00 0.00 0.71 93 1009.5
20260506034510 12 217 0.0 0.0 0.00 0.00 0.71 93 1009.5
20260506033015 12 217 0.0 0.0 0.00 0.00 0.71 92 1009.6
20260506031508 12 217 0.0 0.0 0.00 0.00 0.71 93 1009.5
20260506030008 12 217 0.0 0.0 0.00 0.00 0.71 93 1009.5
20260506024517 12 216 0.0 0.0 0.00 0.00 0.71 93 1009.5
20260506023006 12 216 0.0 0.0 0.00 0.00 0.71 93 1009.6
20260506021509 12 216 0.0 0.0 0.00 0.00 0.71 92 1009.6
20260506020004 12 216 1.6 0.0 0.00 0.00 0.71 92 1009.7
20260506014505 12 215 1.6 0.0 0.00 0.00 0.71 92 1009.7
20260506013104 12 217 1.6 0.0 0.00 0.00 0.71 92 1009.8
20260506011626 12 215 3.2 0.0 0.00 0.00 0.71 92 1009.9
20260506010057 12 215 4.8 0.0 0.00 0.00 0.71 92 1009.9
20260506004604 13 213 4.8 0.0 0.00 0.00 0.71 92 1009.9
20260506003052 13 230 3.2 0.0 0.00 0.00 0.71 92 1010.0
20260506001551 13 225 0.0 0.0 0.00 0.00 0.71 92 1009.9
20260506000114 13 225 1.6 0.0 0.00 0.00 0.71 92 1010.0
20260505234553 13 224 0.0 0.0 0.00 0.00 0.71 92 1010.1
20260505233050 13 224 0.0 0.0 0.00 0.00 0.71 92 1010.1
20260505231551 13 224 0.0 0.0 0.00 0.00 0.64 92 1010.1
20260505230101 13 224 0.0 0.0 0.00 0.00 0.58 92 1010.2
20260505224544 13 224 0.0 0.0 0.00 0.00 0.30 92 1010.3
20260505223042 13 224 0.0 0.0 0.00 0.00 0.13 92 1010.4
20260505221546 13 224 0.0 0.0 0.00 0.00 0.03 92 1010.4
20260505220040 13 224 0.0 0.0 0.00 0.00 0.00 92 1010.5
20260505214539 13 224 0.0 0.0 0.00 0.00 0.30 92 1010.6
20260505213040 13 224 0.0 0.0 0.00 0.00 0.28 92 1010.6
20260505211541 13 224 0.0 0.0 0.00 0.00 0.18 92 1010.7
20260505210038 13 224 0.0 0.0 0.00 0.00 0.18 92 1010.8
20260505204546 13 224 0.0 0.0 0.00 0.00 0.18 92 1010.7
20260505203047 13 224 0.0 0.0 0.00 0.00 0.18 92 1010.8
20260505201536 13 224 0.0 0.0 0.00 0.00 0.18 92 1011.0
20260505200036 13 224 0.0 0.0 0.00 0.00 0.18 92 1011.0
20260505194545 13 224 0.0 0.0 0.00 0.00 0.18 92 1010.9
20260505193037 13 224 0.0 0.0 0.00 0.00 0.18 91 1010.7
20260505191544 13 224 0.0 0.0 0.00 0.00 0.18 91 1010.8
20260505190040 13 224 0.0 0.0 0.00 0.00 0.18 91 1010.6
20260505184536 13 224 0.0 0.0 0.00 0.00 0.18 91 1010.6
20260505183034 13 224 0.0 0.0 0.00 0.00 0.18 91 1010.5
20260505181536 13 224 0.0 0.0 0.00 0.00 0.18 91 1010.5
20260505180043 13 224 0.0 0.0 0.00 0.00 0.18 90 1010.5
20260505174533 13 224 0.0 0.0 0.00 0.00 0.18 90 1010.6
20260505173029 14 231 0.0 0.0 0.00 0.00 0.18 89 1010.7
20260505171529 14 231 0.0 0.0 0.00 0.00 0.18 90 1010.7
20260505170030 15 231 0.0 0.0 0.00 0.00 0.18 90 1010.8
20260505164627 15 231 0.0 0.0 0.00 0.00 0.18 90 1010.8
20260505163025 15 231 0.0 0.0 0.00 0.00 0.15 90 1011.0
20260505161527 15 231 0.0 0.0 0.00 0.00 0.15 89 1010.9
20260505153024 15 230 3.2 0.0 0.00 0.00 0.13 88 1011.3
20260505151523 15 229 1.6 0.0 0.00 0.00 0.13 89 1011.1
20260505124520 18 217 6.4 0.0 0.00 0.00 0.00 69 1011.2
20260505123015 19 224 1.6 0.0 0.00 0.00 0.00 63 1011.2
20260505121528 19 224 0.0 0.0 0.00 0.00 0.00 61 1011.2
20260505120014 20 222 6.4 0.0 0.00 0.00 0.00 59 1011.2
20260505114514 20 184 0.0 0.0 0.00 0.00 0.00 56 1011.3